When you browse on this site, cookies collect data to enhance your experience and personalize the content and advertising you see.
Visit our Privacy Policy to learn more. By continuing to use the site, you agree to this use of cookies and data.
  • In Deutschland
  • Länderverzeichnis
  • Für 7 Tage
  • Wassertemperatur
  • Satellitenkarten
  • Wetterkarte
  • Widgets
  • user-avatar
    Anmelden

    Stündliche Wetter Constantine

    Heute, 25 April, Donnerstag

    Zeit Temperatur Niederschläge Wind Luftdruck Luftfeuchtigkeit
    00:00 +12°C° 0 mm 1 m/S 708 mmHg 95%
    01:00 +12°C° 0 mm 1 m/S 708 mmHg 94%
    02:00 +12°C° 0 mm 1 m/S 708 mmHg 94%
    03:00 +12°C° 0 mm 1 m/S 708 mmHg 93%
    04:00 +13°C° 0 mm 1 m/S 708 mmHg 90%
    05:00 +14°C° 0 mm 1 m/S 709 mmHg 88%
    06:00 +15°C° 0 mm 1 m/S 709 mmHg 85%
    07:00 +18°C° 0 mm 1 m/S 709 mmHg 76%
    08:00 +20°C° 0 mm 1 m/S 710 mmHg 68%
    09:00 +22°C° 0 mm 1 m/S 710 mmHg 59%
    10:00 +23°C° 0 mm 1 m/S 711 mmHg 55%
    11:00 +25°C° 0 mm 1 m/S 711 mmHg 51%
    12:00 +26°C° 0 mm 2 m/S 711 mmHg 47%
    13:00 +26°C° 0 mm 2 m/S 711 mmHg 49%
    14:00 +26°C° 0 mm 3 m/S 710 mmHg 52%
    15:00 +27°C° 0 mm 4 m/S 710 mmHg 55%
    16:00 +24°C° 0.4 mm 3 m/S 710 mmHg 67%
    17:00 +21°C° 0.4 mm 3 m/S 710 mmHg 80%
    18:00 +19°C° 0.4 mm 2 m/S 709 mmHg 92%
    19:00 +18°C° 0 mm 2 m/S 710 mmHg 93%
    20:00 +18°C° 0 mm 1 m/S 710 mmHg 94%
    21:00 +16°C° 0 mm 1 m/S 710 mmHg 95%
    22:00 +16°C° 0 mm 1 m/S 711 mmHg 94%
    23:00 +16°C° 0 mm 1 m/S 711 mmHg 94%

    Morgen, 26 April, Freitag

    Zeit Temperatur Niederschläge Wind Luftdruck Luftfeuchtigkeit
    00:00 +15°C° 0 mm 1 m/S 711 mmHg 93%
    01:00 +15°C° 0 mm 1 m/S 711 mmHg 92%
    02:00 +14°C° 0 mm 1 m/S 711 mmHg 92%
    03:00 +13°C° 0 mm 1 m/S 711 mmHg 91%
    04:00 +14°C° 0 mm 1 m/S 711 mmHg 87%
    05:00 +14°C° 0 mm 1 m/S 712 mmHg 84%
    06:00 +13°C° 0 mm 0 m/S 712 mmHg 80%
    07:00 +16°C° 0 mm 1 m/S 713 mmHg 71%
    08:00 +18°C° 0 mm 2 m/S 713 mmHg 62%
    09:00 +19°C° 0 mm 3 m/S 714 mmHg 53%
    10:00 +20°C° 0 mm 3 m/S 714 mmHg 53%
    11:00 +21°C° 0 mm 4 m/S 714 mmHg 54%
    12:00 +22°C° 0 mm 4 m/S 714 mmHg 54%
    13:00 +20°C° 0 mm 4 m/S 714 mmHg 61%
    14:00 +19°C° 0 mm 5 m/S 713 mmHg 67%
    15:00 +17°C° 0 mm 5 m/S 713 mmHg 73%
    16:00 +17°C° 0.1 mm 4 m/S 713 mmHg 77%
    17:00 +15°C° 0.1 mm 4 m/S 713 mmHg 81%
    18:00 +14°C° 0.1 mm 3 m/S 713 mmHg 85%
    19:00 +13°C° 0.1 mm 3 m/S 713 mmHg 87%
    20:00 +14°C° 0.1 mm 2 m/S 714 mmHg 88%
    21:00 +13°C° 0.1 mm 2 m/S 715 mmHg 90%
    22:00 +13°C° 0 mm 2 m/S 714 mmHg 90%
    23:00 +12°C° 0 mm 1 m/S 714 mmHg 90%

    übermorgen, 27 April, Samstag

    Zeit Temperatur Niederschläge Wind Luftdruck Luftfeuchtigkeit
    00:00 +12°C° 0 mm 1 m/S 714 mmHg 89%
    01:00 +11°C° 0 mm 1 m/S 714 mmHg 89%
    02:00 +11°C° 0 mm 1 m/S 714 mmHg 89%
    03:00 +10°C° 0 mm 1 m/S 714 mmHg 89%
    04:00 +10°C° 0 mm 1 m/S 714 mmHg 87%
    05:00 +11°C° 0 mm 1 m/S 714 mmHg 85%
    06:00 +11°C° 0 mm 1 m/S 714 mmHg 83%
    07:00 +12°C° 0 mm 1 m/S 715 mmHg 71%
    08:00 +14°C° 0 mm 2 m/S 715 mmHg 60%
    09:00 +16°C° 0 mm 2 m/S 715 mmHg 48%
    10:00 +17°C° 0 mm 2 m/S 715 mmHg 46%
    11:00 +18°C° 0 mm 2 m/S 715 mmHg 44%
    12:00 +19°C° 0 mm 3 m/S 715 mmHg 42%
    13:00 +19°C° 0 mm 3 m/S 715 mmHg 45%
    14:00 +19°C° 0 mm 4 m/S 715 mmHg 47%
    15:00 +19°C° 0 mm 4 m/S 714 mmHg 50%
    16:00 +17°C° 0 mm 4 m/S 714 mmHg 59%
    17:00 +14°C° 0 mm 3 m/S 714 mmHg 68%
    18:00 +13°C° 0 mm 3 m/S 714 mmHg 77%
    19:00 +12°C° 0 mm 2 m/S 714 mmHg 82%
    20:00 +11°C° 0 mm 1 m/S 714 mmHg 86%
    21:00 +9°C° 0 mm 0 m/S 714 mmHg 90%
    22:00 +8°C° 0 mm 0 m/S 714 mmHg 90%
    23:00 +8°C° 0 mm 0 m/S 714 mmHg 90%

    28 April, Sonntag

    Zeit Temperatur Niederschläge Wind Luftdruck Luftfeuchtigkeit
    00:00 +7°C° 0 mm 0 m/S 714 mmHg 90%
    01:00 +7°C° 0 mm 0 m/S 713 mmHg 89%
    02:00 +7°C° 0 mm 0 m/S 713 mmHg 88%
    03:00 +7°C° 0 mm 0 m/S 713 mmHg 87%
    04:00 +8°C° 0 mm 0 m/S 713 mmHg 82%
    05:00 +9°C° 0 mm 0 m/S 713 mmHg 76%
    06:00 +11°C° 0 mm 1 m/S 713 mmHg 71%
    07:00 +12°C° 0 mm 0 m/S 714 mmHg 61%
    08:00 +14°C° 0 mm 0 m/S 714 mmHg 51%
    09:00 +16°C° 0 mm 0 m/S 714 mmHg 42%
    10:00 +19°C° 0 mm 1 m/S 714 mmHg 40%
    11:00 +20°C° 0 mm 1 m/S 714 mmHg 38%
    12:00 +22°C° 0 mm 1 m/S 713 mmHg 37%
    13:00 +21°C° 0 mm 2 m/S 713 mmHg 40%
    14:00 +21°C° 0 mm 3 m/S 713 mmHg 42%
    15:00 +21°C° 0 mm 4 m/S 712 mmHg 45%
    16:00 +19°C° 0 mm 3 m/S 712 mmHg 57%
    17:00 +17°C° 0 mm 3 m/S 711 mmHg 68%
    18:00 +14°C° 0 mm 3 m/S 711 mmHg 80%
    19:00 +14°C° 0 mm 2 m/S 711 mmHg 84%
    20:00 +12°C° 0 mm 1 m/S 711 mmHg 89%
    21:00 +11°C° 0 mm 1 m/S 711 mmHg 93%
    22:00 +11°C° 0 mm 1 m/S 711 mmHg 93%
    23:00 +9°C° 0 mm 0 m/S 711 mmHg 93%

    29 April, Montag

    Zeit Temperatur Niederschläge Wind Luftdruck Luftfeuchtigkeit
    00:00 +9°C° 0 mm 0 m/S 710 mmHg 94%
    01:00 +9°C° 0 mm 0 m/S 710 mmHg 93%
    02:00 +8°C° 0 mm 0 m/S 710 mmHg 93%
    03:00 +8°C° 0 mm 0 m/S 709 mmHg 93%
    04:00 +9°C° 0 mm 0 m/S 710 mmHg 91%
    05:00 +10°C° 0 mm 0 m/S 710 mmHg 89%
    06:00 +11°C° 0 mm 0 m/S 710 mmHg 87%
    07:00 +14°C° 0 mm 1 m/S 710 mmHg 79%
    08:00 +16°C° 0 mm 1 m/S 711 mmHg 71%
    09:00 +19°C° 0 mm 1 m/S 711 mmHg 64%
    10:00 +19°C° 0 mm 2 m/S 711 mmHg 61%
    11:00 +20°C° 0 mm 2 m/S 711 mmHg 58%
    12:00 +22°C° 0 mm 3 m/S 710 mmHg 55%
    13:00 +21°C° 0.1 mm 4 m/S 710 mmHg 59%
    14:00 +20°C° 0.1 mm 4 m/S 710 mmHg 64%
    15:00 +20°C° 0.1 mm 5 m/S 709 mmHg 69%
    16:00 +18°C° 0 mm 4 m/S 709 mmHg 74%
    17:00 +16°C° 0 mm 3 m/S 709 mmHg 78%
    18:00 +14°C° 0 mm 3 m/S 709 mmHg 82%
    19:00 +14°C° 0 mm 2 m/S 709 mmHg 84%
    20:00 +12°C° 0 mm 2 m/S 710 mmHg 87%
    21:00 +11°C° 0 mm 1 m/S 710 mmHg 90%
    22:00 +11°C° 0 mm 1 m/S 710 mmHg 89%
    23:00 +11°C° 0 mm 1 m/S 709 mmHg 89%

    30 April, Dienstag

    Zeit Temperatur Niederschläge Wind Luftdruck Luftfeuchtigkeit
    00:00 +10°C° 0 mm 0 m/S 709 mmHg 88%
    01:00 +9°C° 0 mm 0 m/S 709 mmHg 88%
    02:00 +9°C° 0 mm 0 m/S 709 mmHg 88%
    03:00 +9°C° 0 mm 0 m/S 708 mmHg 88%
    04:00 +10°C° 0 mm 0 m/S 708 mmHg 85%
    05:00 +11°C° 0 mm 0 m/S 709 mmHg 82%
    06:00 +12°C° 0 mm 0 m/S 709 mmHg 78%
    07:00 +15°C° 0 mm 1 m/S 709 mmHg 73%
    08:00 +18°C° 0 mm 1 m/S 709 mmHg 68%
    09:00 +19°C° 0 mm 1 m/S 710 mmHg 63%
    10:00 +21°C° 0 mm 1 m/S 710 mmHg 59%
    11:00 +21°C° 0 mm 2 m/S 710 mmHg 56%
    12:00 +23°C° 0 mm 2 m/S 709 mmHg 52%
    13:00 +22°C° 0.1 mm 3 m/S 709 mmHg 54%
    14:00 +22°C° 0.1 mm 4 m/S 709 mmHg 57%
    15:00 +22°C° 0.1 mm 4 m/S 708 mmHg 59%
    16:00 +20°C° 0.2 mm 4 m/S 708 mmHg 66%
    17:00 +18°C° 0.2 mm 3 m/S 708 mmHg 72%
    18:00 +16°C° 0.2 mm 2 m/S 707 mmHg 79%
    19:00 +15°C° 0 mm 2 m/S 708 mmHg 82%
    20:00 +13°C° 0 mm 1 m/S 708 mmHg 86%
    21:00 +12°C° 0 mm 1 m/S 708 mmHg 90%
    22:00 +11°C° 0 mm 0 m/S 707 mmHg 89%
    23:00 +11°C° 0 mm 0 m/S 707 mmHg 88%
    Mehr zeigen